THORAD AGENA D DEB, 42520

Orbit data source: Space-Track

THORAD AGENA D DEB, 42520 is space debris in SSO originally from a launch on Wed, 08 Apr 1970 UTC launched from the Air Force Western Test Range (AFWTR). Debris objects in space refer to the collection of defunct objects orbiting the Earth. Examples of debris include non-operational satellites, rocket bodies, and fragments generated from explosions, collisions, or faulty payload assembly.

Loading next visibility...
Identifier
42520, 1970-025SA
Orbit
SSO
Country
Flag of USUS
Related business
Manufacturer
Unknown
Mission
Spacecraft
Bus & Motor
Unknown
Mass
Unknown
Launch date (UTC)
1970-04-08 (56 years ago)
Launch vehicle
Unknown
Launch site
Air Force Western Test Range (AFWTR)
Object type
Payload
Rocket body
Debris
Shape & HBR
Unknown shape, 0.1 m
Radar Cross Section
Small (<0.1 m²)

Expand to show TLE details & history
Last TLE update: 1 month ago

TLE from 1 month ago
0 THORAD AGENA D DEB
1 42520U 70025SA  25244.74985704  .00002615  00000-0  21077-2 0  9991
2 42520 100.3231  75.3253 0095257 128.9600 232.0090 13.89391172587071
Epoch: 2025-09-01T17:59Z
TLE epoch observation values (Epoch: 2025-09-01T17:59:47.648Z)
Latitude
0.00001°
Longitude
-175.77421°
Altitude
976.855 km
Speed
7.341 km/s
True Right ascension
05h 01m 18s
True Declination
0° 00' 00"
Sunlit
Object was in daylight at epoch
Visualization orbit readout
Latitude
Unknown
Longitude
Unknown
Altitude
Unknown
Speed
Unknown
Apparent Right ascension
Unknown
Apparent Declination
Unknown
Sunlit
N/A
Visualization observer readout
Local Sidereal Time
02:55:29
Azimuth
Unknown
Elevation
Unknown
Doppler factor
Unknown
Orbital elements
Apogee altitude
997.644 km
Perigee altitude
858.451 km
Semi-major axis
7,306.184 km
Eccentricity
0.00953
Inclination
100.3231°
RAAN
75.3253°
Arg. of periapsis
128.96°
True anomaly
231.15502°
Mean anomaly
232.009°
Eccentric anomaly
231.58138°
Mean motion
3.47542 °/min
Orbital period
103.58 mins
BSTAR
0.0021077

Documentation

Showing up to 5 results
|